COSMOS 2251 DEB, 34823

Orbit data source: Space-Track

COSMOS 2251 DEB, 34823 is space debris in LEO originally from a launch on Wed, 16 Jun 1993 UTC launched from the Plesetsk Missile And Space Complex (PKMTR). The debris from Iridium 33, an American commercial communications satellite, has been tracked extensively since its accidental collision with the defunct Russian satellite Cosmos 2251 in 2009. This event, occurring at high speed in low Earth orbit (LEO), generated thousands of pieces of space debris, significantly increasing the risk of further collisions. The Iridium 33 debris cloud has impacted space traffic management and orbital debris mitigation strategies, making it a subject of ongoing study in space situational awareness.

Loading next visibility...
Identifier
34823, 1993-036ABN
Orbit
LEO
Country
Flag of CISCIS
Related business
Manufacturer
Unknown
Mission
Spacecraft
Bus & Motor
Unknown
Mass
Unknown
Launch date (UTC)
1993-06-16 (33 years ago)
Launch vehicle
Unknown
Launch site
Plesetsk Missile And Space Complex (PKMTR)
Object type
Payload
Rocket body
Debris
Shape & HBR
Unknown shape, 0.1 m
Radar Cross Section
Small (<0.1 m²)

Expand to show TLE details & history
Last TLE update: 22 hours ago

TLE from 22 hours ago
0 COSMOS 2251 DEB
1 34823U 93036ABN 26035.29505260  .00002709  00000-0  54171-3 0  9995
2 34823  74.0426   0.8708 0152306  71.4781 290.2861 14.55210970891609
Epoch: 2026-02-04T07:04Z
TLE epoch observation values (Epoch: 2026-02-04T07:04:52.544Z)
Latitude
-0.00011°
Longitude
120.18815°
Altitude
675.344 km
Speed
7.538 km/s
True Right ascension
00h 03m 28s
True Declination
0° 00' 00"
Sunlit
Object was in daylight at epoch
Visualization orbit readout
Latitude
Unknown
Longitude
Unknown
Altitude
Unknown
Speed
Unknown
Apparent Right ascension
Unknown
Apparent Declination
Unknown
Sunlit
N/A
Visualization observer readout
Local Sidereal Time
07:14:01
Azimuth
Unknown
Elevation
Unknown
Doppler factor
Unknown
Orbital elements
Apogee altitude
814.181 km
Perigee altitude
598.381 km
Semi-major axis
7,084.418 km
Eccentricity
0.01523
Inclination
74.0426°
RAAN
0.8708°
Arg. of periapsis
71.4781°
True anomaly
288.63841°
Mean anomaly
290.2861°
Eccentric anomaly
289.46332°
Mean motion
3.63988 °/min
Orbital period
98.9 mins
BSTAR
0.00054171
Loading maneuver chart data...
Computing Atmospheric mass density...

Documentation

Showing up to 5 results
|